Regional Weather Roundup
Issued by NWS Little Rock, AR

Home | Current Version | Previous Version | Graphics & Text | Print | Product List | Glossary On
Versions: 1 2 3 4 5 6 7 8 9 10 11 12 13 14 15 16 17 18 19 20 21 22 23 24 25 26 27 28 29 30 31 32 33 34 35 36 37 38 39 40 41 42 43 44 45 46 47 48 49 50
677
ASUS44 KLZK 081505
RWRLZK

WEATHER ROUNDUP FOR ARKANSAS
NATIONAL WEATHER SERVICE LITTLE ROCK AR
900 AM CST MON FEB 08 2016

NOTE: "FAIR" INDICATES FEW OR NO CLOUDS BELOW 12,000 FEET WITH NO
SIGNIFICANT WEATHER AND/OR OBSTRUCTIONS TO VISIBILITY.

ARZ001-003-010-029-081600-
NORTHWEST ARKANSAS

CITY           SKY/WX    TMP DP  RH WIND       PRES   REMARKS
FAYETTEVILLE   CLOUDY    35  17  47 NW20G30   30.08R WCI  24
FORT SMITH     PTSUNNY   41  14  33 NW20G36   30.15R
HARRISON       CLOUDY    36  17  46 NW21G29   29.98R
BENTONVILLE    CLOUDY    36  16  44 NW18G28   30.07R
ROGERS         CLOUDY    34  17  50 NW17G26   30.05S WCI  23
SILOAM SPGS    CLOUDY    36  14  41 NW20G28   30.09S
HIGHFILL       CLOUDY    36  18  48 NW17G26   30.06S
$$

ARZ004-005-016-081600-
NORTH CENTRAL ARKANSAS

CITY           SKY/WX    TMP DP  RH WIND       PRES   REMARKS
BATESVILLE     PTSUNNY   43  19  39 W12G18    29.97S
FLIPPIN        CLOUDY   N/A N/A N/A NW20G31   29.96S
MTN HOME       CLOUDY    37  16  42 NW9G24    29.96R
$$

ARZ040-041-081600-
WEST CENTRAL ARKANSAS

CITY           SKY/WX    TMP DP  RH WIND       PRES   REMARKS
MENA           SUNNY     41  18  38 W21G29    30.13S
MOUNT IDA      SUNNY     41  15  35 NW16G26   30.07R
$$

ARZ009-017-025-026-028-081600-
NORTHEAST ARKANSAS

CITY           SKY/WX    TMP DP  RH WIND       PRES   REMARKS
CORNING        FAIR      39  19  45 NW24G33   29.93R
JONESBORO      CLOUDY    40  20  44 NW26G40   29.93R
NEWPORT        PTSUNNY   44  21  40 NW23G29   29.97S
WALNUT RIDGE   CLOUDY    39  18  41 NW25      29.94R
BLYTHEVILLE    CLOUDY    42  27  55 W14G20    29.90R
NW BLYTHEVILLE PTSUNNY   41  27  56 W13G20    29.91R
$$

ARZ022-023-033-042-044-081600-
CENTRAL ARKANSAS

CITY           SKY/WX    TMP DP  RH WIND       PRES   REMARKS
LITTLE ROCK    MOSUNNY   44  20  38 NW17G32   30.05R
N LITTLE ROCK  MOSUNNY   42  23  46 NW17G29   30.05R
JACKSONVILLE   MOSUNNY   43  20  40 NW17G28   30.02R
SEARCY         MOSUNNY   43  21  42 NW14      30.02R
HOT SPRINGS    SUNNY     42  16  34 NW14G33   30.08R
RUSSELLVILLE   MOSUNNY   41  16  36 NW17G30   30.05R
CLINTON        PTSUNNY   39  18  41 NW15G22   30.02R
$$

ARZ036-081600-
EAST ARKANSAS

CITY           SKY/WX    TMP DP  RH WIND       PRES   REMARKS
WEST MEMPHIS   SUNNY     43  26  51 NW12G23   29.94R
$$

ARZ050-053-066-070-073-081600-
SOUTHWEST ARKANSAS

CITY           SKY/WX    TMP DP  RH WIND       PRES   REMARKS
ARKADELPHIA    FAIR      45  18  34 NW20G29   30.11R
CAMDEN         MIX PCPN  46  18  31 NW15G28   30.12R
TEXARKANA      SUNNY     45  18  34 NW22G30   30.18R
EL DORADO      SUNNY     45  19  35 NW16G32   30.12S
DE QUEEN       SUNNY     44  18  35 NW14G28   30.17S
$$

ARZ056-057-069-081600-
SOUTHEAST ARKANSAS

CITY           SKY/WX    TMP DP  RH WIND       PRES   REMARKS
PINE BLUFF     SUNNY     44  20  38 NW24G38   30.06R
STUTTGART      SUNNY     45  25  45 W22G28    30.02R
MONTICELLO     SUNNY     46  22  38 W13G22    30.05R

$$






USA.gov is the U.S. government's official web portal to all federal, state and local government web resources and services.